EW4538 Weather Reports


time (UTC)temp
F
wind
direction
speed
knots
gust
knots
rain 1hr
in
rain 24hr
in
rain mn
in
humidity
%
barometer
mb
20260510021805 79 171 4.3 7.0 0.00 0.00 0.00 67 1009.0
20260510021304 79 155 4.3 7.0 0.00 0.00 0.00 66 1008.9
20260510020805 79 155 2.6 7.0 0.00 0.00 0.00 66 1008.9
20260510020305 79 155 4.3 8.7 0.00 0.00 0.00 66 1008.7
20260510014805 80 159 7.8 10.4 0.00 0.00 0.00 64 1008.5
20260510014305 80 155 7.8 11.3 0.00 0.00 0.00 63 1008.5
20260510013804 80 162 7.0 10.4 0.00 0.00 0.00 63 1008.5
20260510013305 81 156 7.8 12.2 0.00 0.00 0.00 62 1008.5
20260510011805 82 149 8.7 13.0 0.00 0.00 0.00 59 1008.4
20260510011305 82 154 7.0 11.3 0.00 0.00 0.00 59 1008.3
20260510010804 82 144 8.7 11.3 0.00 0.00 0.00 58 1008.3
20260510010305 82 153 7.0 13.9 0.00 0.00 0.00 57 1008.2
20260510004805 83 158 7.8 12.2 0.00 0.00 0.00 55 1008.2
20260510004304 84 163 7.8 12.2 0.00 0.00 0.00 54 1008.1
20260510003805 84 151 7.8 13.0 0.00 0.00 0.00 53 1008.0
20260510003305 84 149 10.4 17.4 0.00 0.00 0.00 52 1008.0
20260510001805 85 146 11.3 13.9 0.00 0.00 0.00 48 1007.8
20260510001304 85 157 8.7 14.8 0.00 0.00 0.00 47 1007.8
20260510000805 85 164 9.6 13.0 0.00 0.00 0.00 47 1007.7
20260510000305 86 150 7.8 12.2 0.00 0.00 0.00 47 1007.6
20260509234805 86 148 7.8 12.2 0.00 0.00 0.00 44 1007.6
20260509234305 86 154 7.8 13.0 0.00 0.00 0.00 44 1007.6
20260509233805 87 164 8.7 13.0 0.00 0.00 0.00 44 1007.6
20260509233304 87 146 8.7 13.0 0.00 0.00 0.00 44 1007.5
20260509231804 87 150 10.4 15.6 0.00 0.00 0.00 44 1007.5
20260509231304 87 155 6.1 13.0 0.00 0.00 0.00 44 1007.5
20260509230805 87 143 5.2 13.0 0.00 0.00 0.00 43 1007.5
20260509230304 87 154 7.8 13.0 0.00 0.00 0.00 43 1007.4
20260509224304 88 164 7.0 12.2 0.00 0.00 0.00 44 1007.5
20260509223304 87 148 8.7 15.6 0.00 0.00 0.00 44 1007.5
20260509221805 90 155 6.1 11.3 0.00 0.00 0.00 41 1007.4
20260509221305 90 130 3.5 7.8 0.00 0.00 0.00 42 1007.4
20260509220804 90 209 0.9 2.6 0.00 0.00 0.00 42 1007.4
20260509220304 89 209 4.3 8.7 0.00 0.00 0.00 41 1007.4
20260509214805 91 23 2.6 7.8 0.00 0.00 0.00 42 1007.6
20260509214305 89 54 0.9 7.8 0.00 0.00 0.00 44 1007.7
20260509213305 90 140 2.6 10.4 0.00 0.00 0.00 42 1007.8
20260509210805 90 111 4.3 7.0 0.00 0.00 0.00 42 1008.0
20260509210305 91 140 3.5 10.4 0.00 0.00 0.00 41 1008.1
20260509204804 94 309 1.7 5.2 0.00 0.00 0.00 39 1008.3
20260509204304 94 289 3.5 5.2 0.00 0.00 0.00 39 1008.4
20260509203805 93 330 2.6 7.0 0.00 0.00 0.00 41 1008.4
20260509203305 92 205 1.7 7.0 0.00 0.00 0.00 41 1008.6
20260509200805 93 326 2.6 7.0 0.00 0.00 0.00 42 1009.1
20260509194805 92 236 2.6 5.2 0.00 0.00 0.00 43 1009.1
20260509194305 92 197 1.7 5.2 0.00 0.00 0.00 43 1009.0
20260509193805 92 234 2.6 12.2 0.00 0.00 0.00 44 1009.1
20260509193305 92 204 1.7 8.7 0.00 0.00 0.00 42 1009.1
20260509191805 92 198 2.6 5.2 0.00 0.00 0.00 46 1009.3
20260509191305 91 306 1.7 7.0 0.00 0.00 0.00 46 1009.3
20260509184805 91 198 1.7 5.2 0.00 0.00 0.00 49 1009.9
20260509184304 91 321 2.6 5.2 0.00 0.00 0.00 48 1009.9
20260509183805 90 279 2.6 7.0 0.00 0.00 0.00 50 1009.9
20260509183304 90 198 3.5 8.7 0.00 0.00 0.00 49 1010.1
20260509181805 89 297 1.7 5.2 0.00 0.00 0.00 50 1010.2
20260509180805 88 289 3.5 10.4 0.00 0.00 0.00 51 1010.5
20260509180304 88 296 5.2 10.4 0.00 0.00 0.00 50 1010.6
20260509174305 87 225 1.7 4.3 0.00 0.00 0.00 55 1010.8
20260509173805 87 244 1.7 5.2 0.00 0.00 0.00 58 1010.9
20260509173305 86 223 0.9 8.7 0.00 0.00 0.00 59 1011.0
20260509170305 84 172 2.6 10.4 0.00 0.00 0.00 63 1011.1
20260509164805 82 161 2.6 7.0 0.00 0.00 0.00 66 1011.2
20260509164305 81 209 1.7 7.0 0.00 0.00 0.00 69 1011.3
20260509163804 80 140 2.6 8.7 0.00 0.00 0.00 69 1011.3
20260509163305 80 152 6.1 13.9 0.00 0.00 0.00 70 1011.4
20260509161304 76 164 4.3 11.3 0.00 0.00 0.00 78 1011.5
20260509160305 76 160 6.1 14.8 0.00 0.00 0.00 79 1011.5
20260509154804 76 181 7.8 11.3 0.00 0.00 0.00 79 1011.6
20260509154305 76 170 5.2 13.9 0.00 0.00 0.00 79 1011.4
20260509153804 76 169 7.8 13.0 0.00 0.00 0.00 79 1011.3
20260509153304 75 170 8.7 15.6 0.00 0.00 0.00 79 1011.3
20260509151304 77 174 7.0 12.2 0.00 0.00 0.00 77 1010.9
20260509150805 77 180 7.0 12.2 0.00 0.00 0.00 77 1010.9
20260509150305 78 169 5.2 15.6 0.00 0.00 0.00 78 1010.8
20260509143805 77 174 5.2 10.4 0.00 0.00 0.00 79 1010.7
20260509143305 77 203 2.6 7.0 0.00 0.00 0.00 80 1010.7
20260509141804 75 184 2.6 5.2 0.00 0.00 0.00 82 1010.4
20260509134804 73 172 3.5 10.4 0.00 0.00 0.00 85 1010.0
20260509134305 73 158 6.1 10.4 0.00 0.00 0.00 85 1010.1
20260509133804 73 172 3.5 8.7 0.00 0.00 0.00 86 1010.2
20260509133305 72 162 6.1 11.3 0.00 0.00 0.00 86 1010.3
20260509131305 71 176 5.2 8.7 0.00 0.00 0.00 87 1010.4
20260509130305 71 186 2.6 5.2 0.00 0.00 0.00 87 1010.8
20260509124805 70 323 0.0 0.9 0.00 0.00 0.00 87 1010.9
20260509124304 70 323 0.0 0.9 0.00 0.00 0.00 87 1010.9
20260509123804 70 323 0.0 0.0 0.00 0.00 0.00 87 1010.8
20260509123305 70 323 0.9 2.6 0.00 0.00 0.00 87 1010.8
20260509121804 70 323 0.9 2.6 0.00 0.00 0.00 87 1010.7
20260509121305 70 323 0.9 1.7 0.00 0.00 0.00 87 1010.7
20260509120805 70 323 1.7 2.6 0.00 0.00 0.00 87 1010.8
20260509120304 70 323 0.0 2.6 0.00 0.00 0.00 87 1010.9
20260509114805 70 324 2.6 4.3 0.00 0.00 0.00 86 1011.1
20260509114304 70 27 0.9 1.7 0.00 0.00 0.00 86 1011.0
20260509113804 70 27 1.7 4.3 0.00 0.00 0.00 86 1011.0
20260509113305 70 355 0.9 1.7 0.00 0.00 0.00 86 1011.1
20260509111804 70 355 0.0 0.9 0.00 0.00 0.00 86 1011.6
20260509111305 70 355 1.7 2.6 0.00 0.00 0.00 86 1011.8
20260509110805 70 355 1.7 4.3 0.00 0.00 0.00 86 1011.9
20260509110305 71 13 1.7 4.3 0.00 0.00 0.00 86 1011.9
20260509104305 71 19 0.0 4.3 0.00 0.00 0.00 86 1011.9
20260509103805 71 355 2.6 4.3 0.00 0.00 0.00 86 1012.0
20260509103304 71 5 1.7 5.2 0.00 0.00 0.00 86 1011.9
20260509101804 71 359 1.7 4.3 0.00 0.00 0.00 86 1011.8
20260509101305 71 5 0.9 4.3 0.00 0.00 0.00 86 1011.6
20260509100805 71 343 2.6 4.3 0.00 0.00 0.00 86 1011.6
20260509100305 71 0 1.7 4.3 0.00 0.00 0.00 86 1011.4
20260509094804 71 169 0.0 0.0 0.00 0.00 0.00 86 1010.8
20260509094304 71 169 0.0 0.0 0.00 0.00 0.00 86 1010.6
20260509093305 71 169 0.0 0.9 0.00 0.00 0.00 86 1010.4
20260509091804 71 169 0.0 0.0 0.00 0.00 0.00 86 1010.4
20260509091305 71 169 0.0 0.9 0.00 0.00 0.00 86 1010.3
20260509090804 71 169 0.0 0.9 0.00 0.00 0.00 86 1010.4
20260509084805 71 169 0.0 0.0 0.00 0.00 0.00 85 1010.4
20260509084304 71 169 0.0 1.7 0.00 0.00 0.00 85 1010.5
20260509083805 71 169 0.9 1.7 0.00 0.00 0.00 85 1010.5
20260509083305 71 169 1.7 1.7 0.00 0.00 0.00 85 1010.6
20260509081804 71 169 0.9 1.7 0.00 0.00 0.00 85 1010.8
20260509081305 71 169 1.7 4.3 0.00 0.00 0.00 85 1010.9
20260509080804 71 169 0.0 0.9 0.00 0.00 0.00 85 1010.9
20260509074804 72 169 0.0 0.9 0.00 0.00 0.00 85 1011.0
20260509074304 72 169 0.0 1.7 0.00 0.00 0.00 85 1010.9
20260509073805 72 169 0.0 1.7 0.00 0.00 0.00 85 1010.8
20260509073305 72 169 0.0 4.3 0.00 0.00 0.00 85 1010.6
20260509071805 71 169 0.9 0.9 0.00 0.00 0.00 84 1011.2
20260509071304 71 169 0.0 1.7 0.00 0.00 0.00 84 1011.1
20260509070805 71 169 0.9 1.7 0.00 0.00 0.00 84 1011.2
20260509070305 71 169 0.0 1.7 0.00 0.00 0.00 84 1011.3
20260509064805 71 169 0.0 0.0 0.00 0.00 0.00 84 1011.0
20260509064305 71 169 0.0 0.0 0.00 0.00 0.00 84 1010.9
20260509063304 71 169 0.0 0.9 0.00 0.00 0.00 84 1010.9
20260509061804 71 169 0.0 0.9 0.00 0.00 0.00 84 1011.1
20260509061305 71 169 0.0 1.7 0.00 0.00 0.00 84 1011.0
20260509060804 71 169 0.9 5.2 0.00 0.00 0.00 84 1010.9
20260509054304 71 170 4.3 8.7 0.00 0.00 0.00 84 1010.6
20260509053804 71 179 5.2 8.7 0.00 0.00 0.00 84 1010.6
20260509053304 71 169 7.8 13.9 0.00 0.00 0.00 84 1010.5
20260509051804 70 161 9.6 14.8 0.00 0.00 0.00 84 1009.7
20260509051304 70 162 7.0 13.0 0.00 0.00 0.00 84 1009.7
20260509050305 71 151 9.6 13.9 0.00 0.00 0.00 83 1009.6
20260509044804 71 148 2.6 7.8 0.00 0.00 0.00 83 1009.7
20260509044304 71 133 1.7 5.2 0.00 0.00 0.00 82 1009.8
20260509043804 71 98 0.9 2.6 0.00 0.00 0.00 82 1009.8
20260509043304 71 98 2.6 5.2 0.00 0.00 0.00 82 1010.0
20260509041804 71 125 2.6 7.0 0.00 0.00 0.00 82 1010.3
20260509040804 71 136 2.6 7.0 0.00 0.00 0.00 82 1010.3
20260509034804 72 144 4.3 10.4 0.00 0.00 0.00 81 1010.2
20260509034304 72 160 4.3 11.3 0.00 0.00 0.00 81 1010.1
20260509033804 72 165 6.1 11.3 0.00 0.00 0.00 81 1010.0
20260509031804 72 157 5.2 10.4 0.00 0.00 0.00 81 1010.0
20260509030805 72 159 4.3 7.0 0.00 0.00 0.00 81 1010.0
20260509030304 72 153 4.3 7.0 0.00 0.00 0.00 80 1010.0
20260509024804 73 164 4.3 7.8 0.00 0.00 0.00 80 1009.8
20260509024304 73 166 4.3 7.8 0.00 0.00 0.00 79 1009.8
20260509023805 73 156 5.2 8.7 0.00 0.00 0.00 79 1009.7